Tracking 17264 objects as of 1-September-2015
HD Live streaming from Space Station

DEMETER

Track DEMETER now!
10-day predictions
DEMETER is classified as:


NORAD ID: 28368
Int'l Code: 2004-025C
Perigee: 655.6 km
Apogee: 657.0 km
Inclination: 97.7 °
Period: 97.7 minutes
Semi major axis: 7027 km
RCS: 0.9257 m2 (medium)
Launch date: June 29, 2004
Source: France (FR)

Study of ionosperic perturbations in relation with seismic activity; global study of the Earth electromagnetic environment.
Your satellite tracking list
Your tracking list is empty





NASA's NSSDC Master Catalog

Two Line Element Set (TLE):
1 28368U 04025C   15244.06835063  .00000690  00000-0  11282-3 0  9997
2 28368  97.7284 263.5375 0000939 120.1656 239.9648 14.73737126599116

Source of the keplerian elements: AFSPC

N2YO: 337